www.pogodaiklimat.ru

Погода и климат >> Архив погоды >> Италия >> Рим


АРХИВ ПОГОДЫ в Риме

Время (UTC), дата Ветер
(напр.,м/с)
 
Видим.   Явления Облачность Т
(С)
Тd
(С)
f
(%)
Тe
(С)
Тes
(С)
Комфортность P
(гПа)
Po
(гПа)
Тmin
(С)
Tmax
(С)
R
(мм)
R24
(мм)
S
(см)
03 16.05 СВ 4 45 км 3/3 1500 м
[Cu hum Ac lent Ci fib]
+8.2 +6.1 87 +5 +5 очень
холодно
1009.1 1008.6
06 16.05 СВ 3 50 км 4/0 2000 м
[Ac lent Ci fib]
+10.4 +6.8 78 +8 +10 очень
холодно
1010.3 1009.8 +7.6 0.6
09 16.05 С 2 30 км 1/1 900 м
[Cu Sc]
+17.3 +7.4 52 +18 +32 опасность
простуды
1010.7 1010.2
12 16.05 З 6 30 км 3/3 1050 м
[Cu Sc]
+17.8 +9.2 57 +17 +23 холодно 1010.7 1010.2
15 16.05 СЗ 7 н/о н/о +16.7 +10.4 66 +15 +15 холодно 1010.4 1009.9
18 16.05 З 3 н/о н/о +14.8 +9.8 72 +14 +14 прохладно 1010.8 1010.2 +19.1
21 16.05 В 2 н/о н/о +11.3 +9.6 89 +10 +10 холодно 1011.8 1011.3
00 17.05 В 1 н/о н/о +9.3 +8.6 95 +9 +9 прохладно 1011.1 1010.6
03 17.05 С 1 н/о н/о +8.2 +7.9 98 +8 +8 холодно 1009.9 1009.4
06 17.05 В 2 30 км 5/0
[Ac lent]
+12.7 +10.0 84 +12 +14 прохладно 1010.2 1009.7 +7.5
09 17.05 Ю 3 30 км 5/1 900 м
[Cu hum Ci fib]
+18.1 +12.0 68 +18 +28 по сезону 1010.2 1009.7
12 17.05 Ю 4 30 км 8/8 900 м
[Cu med, cong Cs]
+18.8 +12.7 68 +20 +22 прохладно 1009.6 1009.1
15 17.05 Ю 4 30 км 9/1 750 м
[Cu med, cong Ac trans Cs]
+18.8 +12.4 66 +19 +22 по сезону 1008.4 1007.9
18 17.05 ЮВ 5 25 км 9/0
[Ac As Cs]
+16.9 +12.6 76 +16 +16 прохладно 1007.4 1006.9 +19.9
21 17.05 В 3 25 км 3/0
[Ac trans]
+16.1 +11.9 76 +16 +16 по сезону 1007.0 1006.5
00 18.05 ЮВ 6 35 км слаб. дождь 9/9 1500 м
[Cu Sc Ac As]
+15.8 +11.6 76 +15 +15 по сезону 1006.3 1005.8
03 18.05 ЮВ 9 20 км слаб. дождь 9/3 540 м
[Cu med, cong]
+16.5 +12.8 79 +15 +15 по сезону 1002.8 1002.3
06 18.05 Ю 5 10 км {ливн. осадки, дождь} 9/9 300 м
[Cb cap Ac und]
+16.6 +14.0 85 +16 +16 по сезону 1003.5 1003.0 +14.3 0.6
09 18.05 Ю 4 8000 м {ливн. осадки, дождь} 9/9 360 м
[Cu Sc Ac und]
+17.4 +15.6 89 +17 +18 прохладно 1004.3 1003.8
12 18.05 Ю 6 10 км 8/8 600 м
[Cu Sc Ac inh]
+18.9 +14.1 74 +20 +21 прохладно 1005.0 1004.5 6
15 18.05 Ю 6 15 км 9/9 450 м
[Cu Sc Ci ing]
+18.3 +14.6 79 +18 +19 прохладно 1005.0 1004.4
18 18.05 ЮЗ 4 25 км 6/4 300 м
[Cu med, cong Cs]
+16.6 +14.2 86 +16 +16 прохладно 1005.9 1005.4 +19.7 6
21 18.05 Ю 2 8000 м 4/0
[Cs]
+15.6 +14.6 94 +16 +16 по сезону 1007.0 1006.5
00 19.05 Ю 4 6000 м ливневой дождь 6/6 300 м
[Cu Sc]
+14.6 +13.6 94 +13 +13 по сезону 1006.5 1006.0 0.6
03 19.05 В 2 н/о н/о +13.7 +13.4 98 +13 +13 по сезону 1004.7 1004.2
06 19.05 н/о н/о +14.4 +13.3 93 1004.6 1004.1 +13.0 13
09 19.05 ЮЗ 5 н/о н/о +16.7 +14.4 86 +16 +16 прохладно 1005.0 1004.5
12 19.05 З 6 н/о н/о +16.1 +14.6 91 +15 +15 очень
холодно
1005.9 1005.4 0.2
15 19.05 З 6 25 км 5/4 540 м
[Cu med, cong Ac lent]
+17.1 +12.4 74 +16 +18 прохладно 1006.8 1006.3
18 19.05 ЮЗ 5 20 км 8/8 600 м
[Cu Sc]
+15.9 +11.7 76 +15 +15 прохладно 1007.8 1007.3 +17.8 0.4
21 19.05 ЮЗ 5 30 км слаб. дождь 6/6 600 м
[Cu med, cong]
+14.5 +12.7 89 +13 +13 прохладно 1008.3 1007.8
00 20.05 ЮЗ 6 н/о н/о +14.6 +12.3 86 +13 +13 по сезону 1008.1 1007.6 4
03 20.05 ЮЗ 3 н/о н/о +12.7 +10.8 88 +11 +11 прохладно 1008.2 1007.7
06 20.05 В 2 30 км 8/5 600 м
[Cu med, cong Ac cast]
+15.3 +12.6 84 +15 +16 по сезону 1008.9 1008.4 +11.5 4
09 20.05 ЮЗ 4 6000 м ливневой дождь {гроза} 8/4 450 м
[Cb calv Ac cuf Ci ing]
+14.9 +11.7 81 +14 +18 холодно 1009.8 1009.2
12 20.05 ЮВ 4 40 км {гроза, ливн. осадки} 6/4 720 м
[Cu med, cong Ci fib]
+16.8 +12.5 76 +16 +23 холодно 1010.9 1010.4 9
15 20.05 Ю 5 40 км 5/4 900 м
[Cu med, cong Ci fib]
+17.7 +10.9 64 +17 +20 прохладно 1010.8 1010.3
18 20.05 Ю 5 25 км слаб. дождь {морось} 8/8 900 м
[Cu Sc]
+16.4 +10.9 70 +16 +16 прохладно 1011.0 1010.5 +18.5 9
21 20.05 ЮВ 4 25 км {дождь} 6/6 700 м
[Cu med, cong Ac trans]
+14.0 +12.7 92 +13 +13 прохладно 1011.9 1011.3
00 21.05 ЮВ 1 10 км {ливн. осадки, дождь} 6/6 300 м
[Cu med, cong Ac cuf]
+13.7 +13.0 96 +14 +14 по сезону 1011.8 1011.3 7
03 21.05 З 3 9000 м дымка 8/4 300 м
[Cu Sc Ac und]
+15.2 +14.0 93 +14 +14 по сезону 1011.3 1010.8
06 21.05 ЮЗ 5 9000 м {дождь} 9/9 360 м
[Cu Sc]
+16.0 +14.0 88 +15 +15 по сезону 1012.2 1011.7 +13.2 7
09 21.05 ЮЗ 5 н/о н/о +17.5 +13.4 77 +17 +17 прохладно 1014.1 1013.6
12 21.05 ЮЗ 6 25 км 9/9 600 м
[Cu Sc]
+17.9 +12.3 70 +17 +18 холодно 1015.3 1014.8 0.2
15 21.05 Ю 3 35 км 4/4 900 м
[Cu med, cong Ci fib]
+19.3 +13.2 68 +21 +25 комфорт 1015.5 1015.0
18 21.05 Ю 4 30 км ясно +17.5 +13.9 79 +17 +17 по сезону 1015.6 1015.1 +19.4 0.2
21 21.05 Ю 2 н/о н/о +15.5 +14.6 94 +15 +15 по сезону 1016.8 1016.3
00 22.05 ЮВ 4 н/о н/о +14.2 +13.7 97 +13 +13 по сезону 1016.5 1016.0
03 22.05 ЮВ 3 н/о н/о +13.9 +13.2 96 +13 +13 прохладно 1016.0 1015.5
06 22.05 ЮВ 2 20 км 8/8 270 м
[Cu med, cong]
+15.5 +14.2 92 +16 +16 по сезону 1016.7 1016.2 +13.1
09 22.05 Ю 4 25 км 5/5 360 м
[Cu med, cong]
+18.5 +14.0 75 +19 +25 по сезону 1017.0 1016.5
12 22.05 ЮЗ 5 25 км 3/3 450 м
[Cu hum]
+19.4 +13.4 68 +21 +28 комфорт 1017.1 1016.6
15 22.05 ЮЗ 4 30 км ясно +18.7 +13.1 70 +19 +25 прохладно 1016.5 1016.0
18 22.05 З 2 25 км 3/0
[Ci fib]
+17.2 +13.1 77 +18 +18 по сезону 1016.5 1016.0 +20.2
21 22.05 З 1 25 км ясно +14.4 +12.9 91 +15 +15 по сезону 1017.6 1017.1
00 23.05 В 2 н/о н/о +12.3 +11.7 96 +12 +12 по сезону 1017.5 1017.0

 

Местоположение метеостанции Рим (Италия): широта 41.80 долгота 12.23 высота над уровнем моря 3 м.

В архиве по умолчанию представлена погода в Риме за последнюю неделю. Архивные данные за месяц целиком и за предыдущие месяцы, начиная с января 2011 года, Вы можете получить, выбрав интересующий диапазон дат из раскрывающегося списка и нажав кнопку "Ввод!".


*Определитесь, кто Вы:
робот инопланетянин человек

Внимание! Время в таблицах - всемирное. Для получения местного времени необходимо прибавить поправку, которая равна 1 ч.

Смотрите также архив погоды в соседних городах и на ближайших метеорологических станциях:

Погода в Пратика-ди-Маре (Италия) (25 км)
Погода в Винья-ди-Валле (Италия) (31 км)
Погода в Чивитавеккье (Италия) (42 км)
Погода в Гуидония-Монтечельо (Италия) (47 км)
Погода в Латине (Италия) (62 км)
Погода в Латине 2 (Италия) (62 км)
Погода в Витербо (Италия) (72 км)
Погода во Фрозиноне (Италия) (91 км)
Погода в Торре-Олеволе (Италия) (96 км)
Погода на Монте Терминилло (Италия) (97 км)

Пояснения к столбцам:

Ветер - указаны скорость ветра в м/с - средняя за 10 мин, порывы в срок и между сроками (в фигурных скобках) и направление, откуда дует ветер: С - северный, СВ - северо-восточный, В - восточный, ЮВ - юго-восточный, Ю - южный, ЮЗ - юго-западный, З - западный, СЗ - северо-западный.
Видимость - горизонтальная дальность видимости в метрах или километрах. При видимости от 1 до 10 км при отсутствии осадков обычно наблюдается дымка, при ухудшении видимости до 1 км и менее - туман. В сухую погоду видимость может ухудшаться дымом, пылью или мглою.
Явления - указаны атмосферные явления, наблюдавшиеся в срок или в последний час перед сроком; фигурными скобками обозначены явления, наблюдавшиеся между сроками (за 1-3 часа до срока); квадратными скобками обозначены град или гололедные отложения с указанием их диаметра в мм.
Облачность - указаны через наклонную черту общая и нижняя облачность в баллах и высота нижней границы облаков в метрах; квадратными скобками обозначены формы облаков: Ci - перистые, Cs - перисто-слоистые, Cc - перисто-кучевые, Ac - высококучевые, As - высокослоистые, Sc - слоисто-кучевые, Ns - слоисто-дождевые, Cu - кучевые, Cb - кучево-дождевые. Подробнее классификацию облаков см. в Атласе облаков (PDF).
T - Температура воздуха - температура, измеренная на высоте 2 м над землей.
Td - Температура точки росы - температура, при понижении до которой содержащийся в воздухе водяной пар достигнет насыщения.
f - Относительная влажность воздуха - влажноcть воздуха, измеренная на высоте 2 м над землей.
Te - Эффективная температура - температура, которую ощущает одетый по сезону человек в тени. Характеристика душности погоды. При расчете учитывается влияние влажности воздуха и скорости ветра на теплоощущения человека.
Tes - Эффективная температура на солнце - температура, которую ощущает человек, с поправкой на солнечный нагрев. Характеристика знойности погоды. Зависит от высоты солнца над горизонтом, облачности и скорости ветра. Ночью, в пасмурную погоду, а также при ветре 12 м/с и более поправка равна нулю.
P - Атмосферное давление - приведенное к уровню моря атмосферное давление.
Po - Атмосферное давление - измеренное на уровне метеостанции атмосферное давление.
Tmin - Минимальная температура - минимум температуры воздуха на высоте 2 м над землей.
Tmax - Максимальная температура - максимум температуры воздуха на высоте 2 м над землей.
R - Количество осадков - Количество выпавших осадков за период времени, мм. При наведении курсора мыши на число - период времени, за который выпало указанное количество осадков.
R24 - Количество осадков - Количество выпавших осадков за 24 часа, мм.
S - Снежный покров - Высота снежного покрова, см. При наведении курсора мыши на число - состояние снежного покрова и степень покрытия местности в баллах.